Location: Lhota
(50.0887°N, 14.0116°E)
Time: 21:20:00
(UTC+00:00)

Cosmos 2084 Rocket - Pass Details

Date: 19 May 2025
Orbit: 542 x 579 km, 62.8° (Epoch: 15 June)

Event Time Altitude Azimuth Distance (km) Brightness Sun altitude
Rises 20:16:14 0° 200° (SSW) 2,780 6.6 -11.1°
Reaches altitude 10° 20:18:34 10° 192° (SSW) 1,882 5.7 -11.4°
Maximum altitude 20:22:30 38° 124° (SE) 889 3.9 -11.7°
Drops below altitude 10° 20:26:25 10° 57° (ENE) 1,878 6.0 -12.1°
Sets 20:28:45 0° 49° (NE) 2,773 7.0 -12.3°
